Weather History for Barter Island, AK

Change the Weather History Date:

Tuesday, October 9, 2012

  Actual Average Record
Temperature  
Mean Temperature 29 °F -  
Max Temperature 30 °F 24 °F 53 °F (2006)
Min Temperature 28 °F 16 °F 3 °F (1996)
Degree Days  
Heating Degree Days 36    
Moisture  
Dew Point 28 °F    
Average Humidity 93    
Maximum Humidity 100    
Minimum Humidity 86    
Precipitation  
Precipitation 0.00 in - - ()
Sea Level Pressure  
Sea Level Pressure 30.55 in    
Wind  
Wind Speed 30 mph (West)    
Max Wind Speed 41 mph    
Max Gust Speed 50 mph    
Visibility 4 miles    
Events Fog , Snow    
Averages and records for this station are not official NWS values.
T = Trace of Precipitation, MM = Missing Value Source: NWS Daily Summary

Daily Weather History Graph

Daily Weather History Graph

Search for Another Location

Airport:

Trip Planner

Search our weather history database for the weather conditions in past years. The results will help you decide how hot, cold, wet, or windy it might be!

Date:

Astronomy

Oct. 09, 2012 Rise Set
Actual Time 8:25 AM AKDT 6:15 PM AKDT
Civil Twilight 7:23 AM AKDT 7:17 PM AKDT
Nautical Twilight 6:12 AM AKDT 8:27 PM AKDT
Astronomical Twilight 4:54 AM AKDT 9:44 PM AKDT
Moon No Moon Rise 5:41 PM AKDT (10/9)
Length of Visible Light 11h 53m
Length of Day
9h 49m
Waning Crescent, 35% of the Moon is Illuminated
Oct 9
Waning Crescent
Oct 15
New
Oct 21
First Quarter
Oct 29
Full
Nov 6
Last Quarter

Hourly Weather History & Observations

Time (AKDT) Temp. Windchill Dew Point Humidity Pressure Visibility Wind Dir Wind Speed Gust Speed Precip Events Conditions
12:01 AM 30.0 °F 19.1 °F 28.0 °F 92% 30.49 in 6.0 mi WNW 15.0 mph - 0.00 in Snow Light Snow
12:10 AM 30.2 °F 16.8 °F 28.4 °F 93% 30.50 in 1.8 mi WNW 23.0 mph 27.6 mph 0.00 in Snow Light Snow
12:20 AM 30.2 °F 17.1 °F 28.4 °F 93% 30.50 in 1.5 mi West 21.9 mph - 0.00 in Snow Light Snow
12:25 AM 30.2 °F 16.8 °F 28.4 °F 93% 30.50 in 1.0 mi West 23.0 mph - 0.00 in Snow Light Snow
12:32 AM 30.2 °F 16.5 °F 28.4 °F 93% 30.50 in 1.0 mi West 24.2 mph - 0.00 in Snow Light Snow
12:39 AM 30.2 °F 15.7 °F 28.4 °F 93% 30.51 in 1.5 mi West 27.6 mph 31.1 mph 0.00 in Snow Light Snow
12:46 AM 30.2 °F 15.2 °F 28.4 °F 93% 30.51 in 3.0 mi West 29.9 mph 33.4 mph 0.00 in Snow Light Snow
12:58 AM 30.2 °F 16.2 °F 28.4 °F 93% 30.51 in 6.0 mi West 25.3 mph - 0.00 in Snow Light Snow
1:01 AM 30.0 °F 15.7 °F 28.0 °F 92% 30.51 in 6.0 mi West 26.5 mph - 0.00 in Snow Light Snow
1:28 AM 30.2 °F 15.9 °F 28.4 °F 93% 30.52 in 2.5 mi West 26.5 mph - 0.00 in Snow Light Snow
1:38 AM 30.2 °F 15.7 °F 28.4 °F 93% 30.52 in 3.0 mi West 27.6 mph - 0.00 in Snow Light Snow
1:46 AM 30.2 °F 15.2 °F 28.4 °F 93% 30.53 in 4.0 mi West 29.9 mph 33.4 mph 0.00 in Snow Light Snow
1:58 AM 30.2 °F 15.2 °F 28.4 °F 93% 30.53 in 1.8 mi West 29.9 mph - 0.00 in Snow Light Snow
2:01 AM 30.2 °F 16.2 °F 28.4 °F 93% 30.52 in 1.0 mi West 25.3 mph - 0.00 in Snow Light Snow
2:09 AM 30.2 °F 15.4 °F 28.4 °F 93% 30.53 in 0.8 mi WNW 28.8 mph 32.2 mph 0.00 in Snow Light Snow
2:21 AM 30.2 °F 15.4 °F 30.2 °F 100% 30.53 in 4.0 mi West 28.8 mph - 0.00 in Snow Light Snow
2:33 AM 30.2 °F 15.2 °F 28.4 °F 93% 30.53 in 8.0 mi West 29.9 mph 34.5 mph 0.00 in Snow Light Snow
2:59 AM 30.2 °F 15.7 °F 26.6 °F 86% 30.53 in 4.0 mi West 27.6 mph 32.2 mph 0.00 in   Mostly Cloudy
3:01 AM 30.0 °F 15.4 °F 27.0 °F 88% 30.53 in 4.0 mi West 27.6 mph 32.2 mph 0.00 in   Mostly Cloudy
3:28 AM 30.2 °F 14.7 °F 26.6 °F 86% 30.53 in 4.0 mi West 32.2 mph 38.0 mph 0.00 in   Mostly Cloudy
4:01 AM 30.0 °F 14.9 °F 27.0 °F 88% 30.53 in 2.5 mi West 29.9 mph 38.0 mph 0.00 in   Overcast
4:16 AM 30.2 °F 14.9 °F 28.4 °F 93% 30.52 in 3.0 mi West 31.1 mph 38.0 mph 0.00 in   Overcast
4:27 AM 30.2 °F 14.3 °F 28.4 °F 93% 30.53 in 2.0 mi West 34.5 mph 39.1 mph 0.00 in   Overcast
4:35 AM 30.2 °F 14.7 °F 28.4 °F 93% 30.53 in 1.8 mi West 32.2 mph 39.1 mph 0.00 in   Overcast
4:50 AM 30.2 °F 14.9 °F 28.4 °F 93% 30.52 in 1.8 mi West 31.1 mph 40.3 mph 0.00 in   Overcast
4:59 AM 30.2 °F 13.9 °F 28.4 °F 93% 30.53 in 2.0 mi West 36.8 mph 42.6 mph 0.00 in   Overcast
5:01 AM 30.0 °F 14.0 °F 28.0 °F 92% 30.53 in 2.5 mi West 34.5 mph 42.6 mph 0.00 in   Overcast
5:13 AM 30.2 °F 14.5 °F 28.4 °F 93% 30.53 in 3.0 mi West 33.4 mph 39.1 mph 0.00 in   Overcast
5:22 AM 30.2 °F 13.7 °F 26.6 °F 86% 30.53 in 2.5 mi West 38.0 mph - 0.00 in   Overcast
5:37 AM 30.2 °F 15.2 °F 26.6 °F 86% 30.52 in 5.0 mi West 29.9 mph 41.4 mph 0.00 in   Overcast
6:01 AM 30.0 °F 13.4 °F 27.0 °F 88% 30.53 in 3.0 mi West 38.0 mph 41.4 mph 0.00 in   Overcast
6:08 AM 30.2 °F 13.9 °F 26.6 °F 86% 30.53 in 2.5 mi West 36.8 mph 43.7 mph 0.00 in   Overcast
6:16 AM 30.2 °F 14.1 °F 26.6 °F 86% 30.53 in 5.0 mi West 35.7 mph 43.7 mph 0.00 in Snow Light Snow
6:36 AM 30.2 °F 13.5 °F 26.6 °F 86% 30.54 in 2.5 mi West 39.1 mph 43.7 mph 0.00 in   Overcast
6:44 AM 30.2 °F 13.3 °F 26.6 °F 86% 30.54 in 2.0 mi West 40.3 mph 46.0 mph 0.00 in   Overcast
7:01 AM 30.2 °F 13.9 °F 26.6 °F 86% 30.53 in 3.0 mi West 36.8 mph 46.0 mph 0.00 in   Overcast
7:35 AM 30.2 °F 13.7 °F 26.6 °F 86% 30.54 in 2.0 mi West 38.0 mph 49.5 mph 0.00 in   Overcast
7:44 AM 28.4 °F 11.2 °F 26.6 °F 93% 30.54 in 4.0 mi West 38.0 mph 44.9 mph 0.00 in Snow Light Snow
7:56 AM 28.4 °F 10.8 °F 26.6 °F 93% 30.55 in 1.8 mi West 40.3 mph 47.2 mph 0.00 in Snow Light Snow
7:57 AM 28.9 °F 11.7 °F 26.1 °F 89% 30.55 in 1.8 mi West 39.1 mph 47.2 mph 0.00 in Snow Light Snow
8:03 AM 28.4 °F 11.0 °F 26.6 °F 93% 30.55 in 0.8 mi West 39.1 mph 47.2 mph 0.00 in Snow Light Snow
8:13 AM 28.4 °F 11.0 °F 26.6 °F 93% 30.55 in 0.5 mi West 39.1 mph 44.9 mph 0.00 in Fog , Snow Snow
8:28 AM 28.4 °F 11.2 °F 26.6 °F 93% 30.55 in 0.5 mi West 38.0 mph 46.0 mph 0.00 in Fog , Snow Snow
8:33 AM 28.4 °F 11.0 °F 26.6 °F 93% 30.56 in 0.5 mi West 39.1 mph 44.9 mph 0.00 in Fog , Snow Snow
8:45 AM 28.4 °F 11.0 °F 26.6 °F 93% 30.56 in 0.5 mi West 39.1 mph 48.3 mph 0.00 in Fog , Snow Snow
8:58 AM 28.4 °F 10.8 °F 26.6 °F 93% 30.55 in 0.5 mi West 40.3 mph 46.0 mph 0.00 in Fog , Snow Snow
9:01 AM 28.0 °F 10.5 °F 28.0 °F 100% 30.56 in 0.5 mi West 39.1 mph 47.2 mph 0.00 in Fog , Snow Snow
9:26 AM 28.4 °F 11.2 °F 28.4 °F 100% 30.57 in 1.0 mi West 38.0 mph 46.0 mph 0.00 in Snow Light Snow
9:34 AM 28.4 °F 11.4 °F 28.4 °F 100% 30.56 in 1.5 mi West 36.8 mph 42.6 mph 0.00 in Snow Light Snow
9:45 AM 28.4 °F 10.8 °F 28.4 °F 100% 30.57 in 3.0 mi West 40.3 mph 44.9 mph 0.00 in   Overcast
9:53 AM 28.4 °F 11.4 °F 28.4 °F 100% 30.57 in 1.8 mi West 36.8 mph 44.9 mph 0.00 in   Overcast
10:01 AM 28.9 °F 11.9 °F 28.0 °F 96% 30.57 in 1.2 mi West 38.0 mph 46.0 mph 0.00 in   Overcast
10:11 AM 30.2 °F 13.9 °F 28.4 °F 93% 30.57 in 3.0 mi West 36.8 mph 43.7 mph 0.00 in   Overcast
10:21 AM 30.2 °F 14.3 °F 28.4 °F 93% 30.57 in 1.8 mi West 34.5 mph 42.6 mph 0.00 in   Overcast
11:01 AM 30.0 °F 14.0 °F 28.9 °F 96% 30.57 in 1.2 mi West 34.5 mph 42.6 mph 0.00 in Snow Light Snow
11:28 AM 30.2 °F 13.9 °F 30.2 °F 100% 30.58 in 2.0 mi West 36.8 mph 46.0 mph 0.00 in   Overcast
11:37 AM 30.2 °F 14.3 °F 30.2 °F 100% 30.59 in 5.0 mi West 34.5 mph - 0.00 in   Overcast
11:56 AM 30.2 °F 14.9 °F 28.4 °F 93% 30.58 in 2.5 mi West 31.1 mph 40.3 mph 0.00 in   Overcast
12:01 PM 30.2 °F 14.3 °F 28.4 °F 93% 30.58 in 8.0 mi West 34.5 mph 42.6 mph 0.00 in   Overcast
12:23 PM 30.2 °F 13.1 °F 28.4 °F 93% 30.60 in 1.5 mi West 41.4 mph 46.0 mph 0.00 in   Overcast
12:37 PM 30.2 °F 13.5 °F 28.4 °F 93% 30.59 in 3.0 mi West 39.1 mph 46.0 mph 0.00 in   Overcast
1:01 PM 30.0 °F 13.6 °F 28.9 °F 96% 30.59 in 6.0 mi West 36.8 mph 44.9 mph 0.00 in Snow Light Snow
2:01 PM 30.0 °F 14.0 °F 28.9 °F 96% 30.59 in 9.0 mi West 34.5 mph 42.6 mph 0.00 in   Overcast
3:01 PM 30.9 °F 14.5 °F 28.9 °F 92% 30.60 in 6.0 mi West 39.1 mph 44.9 mph N/A   Mostly Cloudy
4:01 PM 30.9 °F 15.1 °F 28.9 °F 92% 30.61 in 6.0 mi West 35.7 mph 43.7 mph 0.00 in Snow Light Snow
4:17 PM 30.2 °F 14.1 °F 28.4 °F 93% 30.61 in 8.0 mi West 35.7 mph 41.4 mph 0.00 in   Overcast
5:01 PM 30.9 °F 15.1 °F 28.0 °F 89% 30.61 in 6.0 mi West 35.7 mph 44.9 mph 0.00 in   Overcast
5:40 PM 30.2 °F 14.5 °F 28.4 °F 93% 30.60 in 8.0 mi West 33.4 mph 43.7 mph N/A   Overcast
6:01 PM 30.9 °F 15.1 °F 28.9 °F 92% 30.61 in 7.0 mi West 35.7 mph 42.6 mph 0.00 in Snow Light Snow
6:42 PM 30.2 °F 14.1 °F 28.4 °F 93% 30.62 in 10.0 mi West 35.7 mph 43.7 mph 0.00 in Snow Light Snow
7:01 PM 30.0 °F 14.0 °F 28.9 °F 96% 30.61 in 9.0 mi West 34.5 mph 42.6 mph 0.00 in Snow Light Snow
8:01 PM 30.0 °F 14.2 °F 28.9 °F 96% 30.61 in 9.0 mi West 33.4 mph 41.4 mph 0.00 in Snow Light Snow
8:13 PM 30.2 °F 14.3 °F 28.4 °F 93% 30.62 in 10.0 mi West 34.5 mph 39.1 mph 0.00 in   Overcast
9:01 PM 30.0 °F 14.5 °F 28.9 °F 96% 30.61 in 10.0 mi West 32.2 mph 38.0 mph 0.00 in   Overcast
10:01 PM 30.0 °F 15.2 °F 30.0 °F 100% 30.61 in 9.0 mi West 28.8 mph 36.8 mph 0.00 in   Overcast
11:01 PM 30.0 °F 14.5 °F 30.0 °F 100% 30.61 in 9.0 mi West 32.2 mph 39.1 mph 0.00 in   Overcast